Regional Weather Roundup
Issued by NWS Charleston, SC

Current Version | Previous Version | Graphics & Text | Print | Product List | Glossary On
Versions: 1 2 3 4 5 6 7 8 9 10 11 12 13 14 15 16 17 18 19 20 21 22 23 24 25 26 27 28 29 30 31 32 33 34 35 36 37 38 39 40 41 42 43 44 45 46 47 48 49 50
008 ASUS42 KCHS 300913 RWRCHS REGIONAL WEATHER ROUNDUP NATIONAL WEATHER SERVICE CHARLESTON SC 500 AM EDT FRI SEP 30 2016 NOTE: "FAIR" INDICATES FEW OR NO CLOUDS BELOW 12,000 FEET WITH NO SIGNIFICANT WEATHER AND/OR OBSTRUCTIONS TO VISIBILITY. NOT ALL STATIONS ARE QUALITY CONTROLLED. USE DATA WITH CAUTION... ESPECIALLY DEWPOINT OBSERVATIONS. SCZ027-030-031-034>040-042>050-301000- ...SOUTHEAST SOUTH CAROLINA... CITY SKY/WX TMP DP RH WIND PRES REMARKS N CHARLESTON PTCLDY 72 69 90 CALM 29.93R WATERFRONT PRK N/A 75 72 90 CALM 29.90F MOUNT PLEASANT FAIR 72 72 100 CALM 29.93S FOG JOHNS ISLAND PTSUNNY 72 72 100 CALM 29.93S PINOPOLIS N/A 72 70 94 CALM 29.86R MONCKS CORNER FAIR 68 66 94 CALM 29.93S SUMMERVILLE FAIR 70 70 100 CALM 29.94S BEAUFORT MCAS MOCLDY 72 69 90 CALM 29.93S BEAUFORT ARPT FAIR 72 72 100 CALM 29.92S FOG HILTON HEAD IS CLEAR 72 72 100 CALM 29.93F FOG WALTERBORO MOSUNNY 68 68 100 NW5 29.95R ALLENDALE FAIR 64 57 77 CALM 29.95R ...SOUTHERN MIDLANDS AND PEE DEE... CITY SKY/WX TMP DP RH WIND PRES REMARKS GEORGETOWN FAIR 72 70 94 S8 29.95R KINGSTREE N/A 70 68 94 CALM 29.94F ORANGEBURG PTCLDY 67 56 67 NW5 29.94S BARNWELL NOT AVBL AIKEN FAIR 57 52 82 W6 30.00S MANNING FAIR 68 68 100 CALM 29.94S COLUMBIA CLEAR 63 55 75 W3 29.95R SUMTER CLEAR 69 62 78 NW2 29.92R FLORENCE CLOUDY 72 71 97 SW3 29.95R FOG MYRTLE BEACH MOCLDY 79 70 73 SW7 29.96F N MYRTLE BEACH PTCLDY 79 75 87 SW12 29.94F $$ GAZ063-065-086>088-099>101-113>116-118-119-134>141-150-301000- ...SOUTHEAST GEORGIA... CITY SKY/WX TMP DP RH WIND PRES REMARKS SAVANNAH ARPT CLEAR 68 64 87 NW7 29.94S HUNTER AAF PTCLDY 70 69 98 W8 29.92R FORT STEWART PTCLDY 65 60 81 CALM 29.93S STATESBORO PTCLDY 62 59 88 CALM 29.96S SYLVANIA NOT AVBL CLAXTON FAIR 62 62 100 CALM 29.97S ...CSRA...CENTRAL AND FAR SOUTHEAST GEORGIA... CITY SKY/WX TMP DP RH WIND PRES REMARKS THOMSON CLEAR 58 54 84 CALM 30.03S AUGUSTA-BUSH PTCLDY 61 51 70 CALM 29.96S AUGUSTA-DANIEL PTCLDY 65 47 52 W5 29.97S SWAINSBORO FAIR 57 54 88 CALM 29.99S VIDALIA PTCLDY 64 57 77 NW3 29.99S EASTMAN FAIR 57 54 92 CALM 30.02S HAZLEHURST FAIR 65 55 70 CALM 29.98S ALMA PTCLDY 62 57 83 NW5 29.98R WAYCROSS CLEAR 67 62 86 NW5 29.98R JESUP FAIR 64 63 94 NW5 29.97S BAXLEY FAIR 64 59 82 NW5 29.98R BRUNSWICK CLEAR 70 68 94 NW3 29.96S SAINT SIMONS CLEAR 73 66 78 NW5 29.94S $$ SCZ027-028-034-036>038-045-046-048>050-GAZ119-141-301000- ...LAKE AND SUPPLEMENTAL COASTAL OBSERVATIONS... STATION/POSITION TIME TEMP WIND PRES WAVE SWELL AIR SEA DIR/SP/G HT/PER HT/PER/DIR (UTC) (F) (DEG/KT/KT) (MB) (FT/S) (FT/S/D) WINYAH BAY NOT AVBL LAKE MURRAY 0820 69 300/ 3/ 5 1013.9S ACE BASIN NERRS 0745 70 CALM 1014.0 FORT PULASKI 0842 74 81 300/ 7/ 8 1013.8F SAPELO ISLAND 0800 75 280/ 7 1014.0 $$ ANZ835-935-AMZ111-154-330-350-352-354-370-450-454-472-301000- ...C-MAN AND BUOY OBSERVATIONS... STATION/POSITION TIME TEMP WIND PRES WAVE SWELL AIR SEA DIR/SP/G HT/PER HT/PER/DIR (UTC) (F) (DEG/KT/KT) (MB) (FT/S) (FT/S/D) BUOY 41004 0850 82 82 190/ 14/ 16 1013.0F 4/ 5 2/ 90/11 BUOY 41008 0850 78 82 250/ 12/ 14 1013.4R 3/ 5 2/ 70/ 9 FOLLY BEACH CMAN 0800 77 210/ 4/ 5 1013.4F CAPERS NEARSHORE 0808 79 81 220/ 6/ 10 1013.3F FRIPP NEARSHORE 0808 79 81 260/ 14/ 17 1013.3F STATION/POSITION TIME TEMP WIND PRES WAVE SWELL AIR SEA DIR/SP/G HT/PER HT/PER/DIR (UTC) (F) (DEG/KT/KT) (MB) (FT/S) (FT/S/D) 5E ST. MARYS GA 0801 82 N/A 2/11 FRYING PAN BUOY 0850 80 190/ 12/ 16 N/A 3/ 5 2/120/ 9 BUOY 41025 0850 79 76 200/ 2/ 4 1016.2R 4/ 8 3/ 30/ 8 CAPE LOOKOUT NC 0800 79 170/ 7/ 8 1015.4S BUOY 41002 0850 81 83 200/ 8/ 10 1017.2R 3/ 5 3/160/ 5 BUOY 41010 NOT AVBL ST AUGUSTINE FL 0900 74 82 220/ 4/ 6 1015.4F $$

USA.gov is the U.S. government's official web portal to all federal, state and local government web resources and services.